Terug naar catalogus

STARLINK-35743

ActiefCommunicatieVLEO
NORAD 66578·PAYLOAD·🇺🇸 United States

Gelanceerd Nov 21, 2025 vanaf Cape Canaveral Space Force Station

Loading…

Volgende Passages (komende 24 uur)

TLE

VersSource: CelesTrak SupGP

Epoch: Sep 14, 2026, 21:18 UTC

1 66578C 25268X   26257.88798611  .00013586  00000+0  49215-3 0  2578
2 66578  43.0039 358.5369 0001522 280.3617 148.7219 15.27568358    12

Volg STARLINK-35743 in realtime met AllMySat

Download on the App Store